Hourly Data Report for July 02, 2021

WINNIPEG THE FORKS
MANITOBA
Current Station Operator: ECCC - MSC

49°53'18.008" N
97°07'46.007" W
230.00 m
5023262
71579
XWN

Download Data

Hourly Data (July 2021)
Hourly Data Report for July 2, 2021
TIME
LST
Temp Definition
°C
Dew Point Definition
°C
Rel Hum Definition
%
Precip. Amount Definition
mm

Wind Dir Definition
10's deg

Wind Spd Definition
km/h
Visibility Definition
km
Stn Press Definition
kPa
Hmdx Definition


Wind Chill Definition


Weather Definition


00:00 22.6 11.5 49 0.0   0   99.10 25   LegendNANA
01:00 21.4 12.1 55 0.0 20 4   99.14     LegendNANA
02:00 21.1 12.6 58 0.0 20 2   99.06     LegendNANA
03:00 20.6 12.7 60 0.0 20 3   99.03     LegendNANA
04:00 20.7 12.5 59 0.0   0   98.97     LegendNANA
05:00 19.4 12.7 65 0.0   0   99.09     LegendNANA
06:00 19.2 13.2 68 0.0   0   99.16     LegendNANA
07:00 20.8 13.5 63 0.0   0   99.13     LegendNANA
08:00 23.3 14.7 58 0.0   0   99.14 27   LegendNANA
09:00 25.7 14.3 49 0.0   0   99.09 29   LegendNANA
10:00 29.5 12.1 34 0.0 19 1   99.05 32   LegendNANA
11:00 30.3 10.4 29 0.0 20 5   99.00 32   LegendNANA
12:00 31.5 11.5 29 0.0 17 3   98.93 34   LegendNANA
13:00 32.3 12.1 29 0.0 21 6   98.89 35   LegendNANA
14:00 32.5 11.0 27 0.0 21 5   98.84 34   LegendNANA
15:00 33.7 11.7 26 0.0 13 5   98.79 36   LegendNANA
16:00 33.8 12.3 27 0.0 20 9   98.73 36   LegendNANA
17:00 34.2 14.4 30 0.0 25 2   98.67 38   LegendNANA
18:00 33.6 13.8 30 0.0 20 7   98.63 37   LegendNANA
19:00 32.7 14.6 34 0.0 20 3   98.61 36   LegendNANA
20:00 31.1 15.4 39 0.0 29 1   98.59 35   LegendNANA
21:00 29.5 16.2 45 0.0 24 2   98.61 34   LegendNANA
22:00 27.9 16.2 49 0.0 20 5   98.59 33   LegendNANA
23:00 27.8 14.9 45 0.0 19 4   98.59 32   LegendNANA

Notes on Data Quality.

Legend

  • E = Estimated
  • M = Missing
  • NA = Not Available*
  • [empty] = Indicates an unobserved value
Date modified: